Back to catalog

FENGYUN 1C DEB

AlivePO
NORAD 31297·DEBRIS·🇨🇳 China

Launched May 10, 1999 from Taiyuan Satellite Launch Center

Loading…

Next Passes (next 24 hours)

TLE

FreshSource: Space-Track

Epoch: Sep 14, 2026, 06:21 UTC

1 31297U 99025BPF 26257.26478130  .00000578  00000-0  12267-3 0  9991
2 31297  98.9722  59.9351 0137183   5.5827 116.6361 14.57948903 33148

Track FENGYUN 1C DEB in real time with AllMySat

Download on the App Store